[[{"header":{"parameterUnit":"m.s-1","parameterCategory":1,"la1":30.2991,"la2":30.254,"lo1":-89.0895,"lo2":-89.0444,"dy":0.0017,"dx":0.0017,"nx":28,"ny":28,"refTime":"2025-01-29T09:00:00:Z","depth":0,"parameterNumber":2,"parameterNumberName":"U-component_of_WINDS"},"data":[0,0,0,0,0,0,0,0,0,0,0,0,0,0,0,0,0,0,0,0,0,0,0,0,0,0,0,0,0,0,0,0,0,0,0,0,0,0,0,0,0,0,0,0,0,0,0,0,0,0,0,0,0,0,0,0,0,0,-1.6443,-1.6443,0,-1.6415,-1.6415,-1.6415,-1.6348,-1.6347,-1.6346,-1.6344,-1.6317,-1.6318,-1.6318,0,0,0,0,0,0,0,0,0,0,0,0,0,-1.6441,-1.6441,-1.6443,-1.6443,-1.6442,-1.6416,-1.6415,-1.6415,-1.6349,-1.6347,-1.6345,-1.6344,-1.6317,-1.6317,-1.6318,0,0,0,0,0,0,0,0,0,0,0,0,0,-1.643,-1.6441,-1.6443,-1.6406,-1.6402,-1.6416,-1.6415,-1.6415,-1.6349,-1.6347,-1.6345,-1.6343,-1.6317,-1.6317,-1.6318,-1.6365,0,0,-1.6321,-1.6321,0,0,0,0,0,0,0,0,-1.6431,-1.643,-1.6412,-1.6409,-1.6405,-1.6383,-1.6404,-1.6398,-1.6349,-1.6369,-1.6344,-1.6342,-1.6341,-1.634,-1.6339,-1.6364,-1.6363,-1.6321,-1.6322,-1.6322,-1.6322,0,0,0,0,0,0,0,-1.6432,-1.6431,-1.6432,-1.6412,-1.6407,-1.6392,-1.6388,-1.6403,-1.6367,-1.6367,-1.6362,-1.636,-1.6338,-1.6338,-1.6338,-1.6363,-1.6321,-1.6322,-1.6322,-1.6323,-1.6426,-1.6429,0,0,0,0,0,0,-1.6438,-1.6432,-1.6433,-1.6431,-1.6413,-1.6393,-1.6389,-1.6392,-1.6367,-1.6361,-1.6362,-1.6357,-1.6338,-1.6337,-1.6337,-1.639,-1.6322,-1.6323,-1.6323,-1.6424,-1.6427,-1.6429,0,0,0,0,0,0,-1.6438,-1.6438,-1.6434,-1.643,-1.6429,-1.6396,-1.64,-1.6393,-1.6392,-1.6363,-1.6356,-1.6368,-1.6336,-1.6335,-1.6359,-1.6389,-1.6323,-1.6324,-1.6422,-1.6425,-1.6428,-1.6499,0,0,0,0,0,0,-1.6438,-1.6439,-1.6456,-1.6431,-1.6429,-1.6456,-1.6401,-1.6394,-1.6394,-1.6387,-1.6367,-1.6361,-1.6334,-1.6358,-1.636,-1.6389,-1.6325,-1.6419,-1.6423,-1.6427,-1.6494,-1.6504,-1.6513,0,0,0,0,0,-1.6438,-1.6477,-1.6457,-1.6457,-1.645,-1.6458,-1.6457,-1.6425,-1.6397,-1.6414,-1.6395,-1.6362,-1.6386,-1.6361,-1.6362,-1.6392,-1.6417,-1.6422,-1.6427,-1.6489,-1.6502,-1.6513,0,0,0,0,0,0,-1.6505,-1.6473,-1.645,-1.6482,-1.6473,-1.6447,-1.6467,-1.6439,-1.6439,-1.6433,-1.6394,-1.639,-1.6419,-1.6408,-1.6381,-1.6437,-1.6396,-1.6401,-1.6443,-1.6455,-1.6464,-1.6466,-1.6325,0,0,0,0,0,-1.6524,-1.6533,-1.6504,-1.6535,-1.6532,-1.6501,-1.6503,-1.648,-1.6469,-1.6465,-1.6448,-1.644,-1.6445,-1.6449,-1.6453,-1.6492,-1.6487,-1.6513,-1.6523,-1.6531,-1.6536,-1.6557,-1.6569,-1.6446,-1.6446,-1.6446,0,0,-1.6562,-1.6545,-1.6553,-1.6548,-1.6538,-1.655,-1.6498,-1.6512,-1.652,-1.6467,-1.6488,-1.6476,-1.6464,-1.6496,-1.6509,-1.6488,-1.6569,-1.6538,-1.6545,-1.6545,-1.6564,-1.6575,-1.6586,-1.6449,-1.6449,-1.6448,0,0,-1.6637,-1.6625,-1.665,-1.6642,-1.6628,-1.6607,-1.6614,-1.6592,-1.6581,-1.6602,-1.6563,-1.6573,-1.6583,-1.6576,-1.6574,-1.665,-1.6619,-1.6652,-1.6702,-1.6723,-1.6733,-1.6741,-1.6768,-1.6778,-1.6657,-1.6657,-1.6658,0,-1.6686,-1.67,-1.6666,-1.6682,-1.6682,-1.6635,-1.666,-1.6654,-1.6643,-1.6644,-1.662,-1.6633,-1.6622,-1.6652,-1.667,-1.667,-1.6676,-1.6653,-1.6734,-1.6742,-1.675,-1.6775,-1.6785,-1.6661,-1.6661,-1.6661,-1.666,0,-1.6762,-1.6773,-1.6794,-1.6784,-1.6786,-1.6807,-1.6777,-1.6783,-1.676,-1.6742,-1.6765,-1.675,-1.675,-1.6755,-1.6733,-1.6783,-1.677,-1.6741,-1.6699,-1.6766,-1.6789,-1.6798,-1.6667,-1.6666,-1.6665,-1.6664,0,0,-1.6876,-1.6848,-1.6857,-1.6852,-1.6835,-1.6843,-1.6863,-1.6863,-1.6869,-1.6863,-1.6879,-1.689,-1.6863,-1.6861,-1.6838,-1.6856,-1.6917,-1.6825,-1.6824,-1.6842,-1.6972,-1.6994,-1.7005,-1.6898,-1.6899,-1.6901,-1.6973,0,-1.6947,-1.6977,-1.6948,-1.6985,-1.6995,-1.6952,-1.6969,-1.6961,-1.6946,-1.6953,-1.6936,-1.6944,-1.6908,-1.6907,-1.6924,-1.6906,-1.6943,-1.6901,-1.6912,-1.6913,-1.6916,-1.7017,-1.704,-1.7109,-1.6982,-1.6983,-1.6984,0,-1.7032,-1.7031,-1.7069,-1.705,-1.7053,-1.7069,-1.7067,-1.7075,-1.7065,-1.7053,-1.7052,-1.7023,-1.7042,-1.7002,-1.7028,-1.7,-1.7003,-1.6996,-1.6998,-1.6997,-1.6952,-1.7019,-1.713,-1.714,-1.6998,-1.6997,-1.6996,0,-1.7112,-1.712,-1.7143,-1.7141,-1.712,-1.7132,-1.7124,-1.7113,-1.7115,-1.7114,-1.7115,-1.7117,-1.7118,-1.712,-1.7093,-1.7066,-1.7123,-1.708,-1.7113,-1.7114,-1.7126,-1.7126,-1.7239,-1.713,-1.7129,-1.7129,-1.7129,0,-1.7193,-1.7218,-1.7179,-1.7194,-1.7221,-1.7188,-1.7216,-1.7204,-1.7194,-1.7206,-1.717,-1.7182,-1.7147,-1.7156,-1.7135,-1.716,-1.7161,-1.7152,-1.7146,-1.7155,-1.7156,-1.7156,-1.715,-1.7132,-1.7131,-1.7131,-1.713,0,-1.7286,-1.7261,-1.7284,-1.7263,-1.7258,-1.728,-1.7261,-1.7275,-1.7258,-1.7274,-1.7276,-1.7249,-1.7258,-1.7232,-1.7237,-1.7223,-1.7259,-1.7246,-1.7262,-1.7258,-1.7293,-1.729,-1.7409,-1.7423,-1.7306,-1.7307,-1.7308,0,-1.7339,-1.7358,-1.7339,-1.7344,-1.7338,-1.7347,-1.735,-1.7319,-1.7323,-1.7314,-1.7329,-1.7335,-1.7338,-1.7354,-1.7336,-1.7339,-1.7326,-1.7367,-1.7326,-1.7335,-1.7326,-1.7325,-1.7327,-1.7376,-1.7377,-1.7378,-1.7379,0,-1.7436,-1.7423,-1.7428,-1.7429,-1.7433,-1.7432,-1.7429,-1.7436,-1.7403,-1.7409,-1.7418,-1.742,-1.7426,-1.7432,-1.7433,-1.7425,-1.7397,-1.7393,-1.74,-1.7409,-1.7418,-1.7414,-1.7285,-1.739,-1.7389,-1.7388,-1.7387,-1.7387,-1.7511,-1.7525,-1.7515,-1.7521,-1.7516,-1.7514,-1.7526,-1.7511,-1.7517,-1.7519,-1.75,-1.7513,-1.7505,-1.7502,-1.7498,-1.7508,-1.7489,-1.75,-1.7503,-1.7506,-1.7512,-1.7417,-1.7508,-1.7507,-1.7507,-1.7507,-1.7507,0,-1.7606,-1.7597,-1.7604,-1.7601,-1.7607,-1.758,-1.7576,-1.7582,-1.7594,-1.7588,-1.7592,-1.7603,-1.761,-1.7592,-1.7597,-1.7608,-1.7596,-1.761,-1.7609,-1.7608,-1.7529,-1.7521,-1.7621,-1.7621,-1.7621,-1.762,-1.762,-1.762,-1.7656,-1.7679,-1.7666,-1.7687,-1.7678,-1.769,-1.769,-1.7688,-1.7684,-1.7697,-1.7702,-1.7691,-1.7681,-1.7685,-1.769,-1.7685,-1.7688,-1.7708,-1.7698,-1.7624,-1.7613,-1.7603,-1.7595,-1.7709,-1.7709,-1.7776,-1.7777,-1.7777]},{"header":{"parameterUnit":"m.s-1","parameterCategory":1,"la1":30.2991,"la2":30.254,"lo1":-89.0895,"lo2":-89.0444,"dy":0.0017,"dx":0.0017,"nx":28,"ny":28,"refTime":"2025-01-29T09:00:00:Z","depth":0,"parameterNumber":3,"parameterNumberName":"V-component_of_WINDS"},"data":[0,0,0,0,0,0,0,0,0,0,0,0,0,0,0,0,0,0,0,0,0,0,0,0,0,0,0,0,0,0,0,0,0,0,0,0,0,0,0,0,0,0,0,0,0,0,0,0,0,0,0,0,0,0,0,0,0,0,1.1638,1.1638,0,1.1689,1.169,1.169,1.1738,1.1739,1.1739,1.174,1.1792,1.1793,1.1794,0,0,0,0,0,0,0,0,0,0,0,0,0,1.1581,1.1582,1.1638,1.1638,1.1639,1.1689,1.169,1.169,1.1738,1.1739,1.174,1.174,1.1792,1.1793,1.1794,0,0,0,0,0,0,0,0,0,0,0,0,0,1.1616,1.1582,1.1638,1.1669,1.1672,1.1689,1.169,1.1691,1.1738,1.1739,1.174,1.1741,1.1791,1.1793,1.1794,1.1784,0,0,1.1798,1.1798,0,0,0,0,0,0,0,0,1.1614,1.1618,1.1664,1.1667,1.167,1.1708,1.1689,1.1722,1.1738,1.1713,1.174,1.1741,1.1763,1.1767,1.1775,1.1786,1.1788,1.1798,1.1798,1.1799,1.1799,0,0,0,0,0,0,0,1.1612,1.1616,1.1658,1.1664,1.1668,1.168,1.1686,1.1695,1.1732,1.1715,1.1719,1.1724,1.1765,1.1773,1.1776,1.1789,1.1798,1.1799,1.1799,1.18,1.1796,1.1795,0,0,0,0,0,0,1.1604,1.1614,1.1656,1.166,1.1644,1.1681,1.1687,1.1695,1.1733,1.1739,1.1723,1.1726,1.1771,1.1775,1.1778,1.177,1.1799,1.18,1.1801,1.1797,1.1796,1.1795,0,0,0,0,0,0,1.1603,1.1608,1.1654,1.1638,1.1645,1.1681,1.1689,1.1696,1.1704,1.1739,1.1746,1.1725,1.1772,1.1776,1.1782,1.1772,1.1801,1.1802,1.1798,1.1796,1.1795,1.1752,0,0,0,0,0,0,1.1601,1.1607,1.1603,1.1637,1.1645,1.1657,1.1688,1.1696,1.1706,1.171,1.1742,1.1748,1.1773,1.178,1.1783,1.1774,1.1803,1.1799,1.1797,1.1796,1.1754,1.1749,1.1745,0,0,0,0,0,1.1599,1.1589,1.1603,1.1608,1.1642,1.1657,1.1661,1.169,1.1705,1.1702,1.1724,1.1747,1.1773,1.178,1.1784,1.1776,1.18,1.1798,1.1796,1.1756,1.175,1.1745,0,0,0,0,0,0,1.1552,1.1594,1.161,1.161,1.163,1.1665,1.1662,1.1682,1.1698,1.1701,1.1736,1.1743,1.1745,1.1761,1.1769,1.1768,1.1789,1.1788,1.1758,1.1752,1.1748,1.1744,1.1804,0,0,0,0,0,1.1542,1.155,1.1586,1.1583,1.1592,1.1625,1.1633,1.1653,1.1675,1.1683,1.1706,1.1726,1.1739,1.1746,1.176,1.1757,1.1765,1.1753,1.1748,1.1744,1.1743,1.1743,1.1739,1.1789,1.1789,1.1789,0,0,1.152,1.1544,1.1547,1.1574,1.1592,1.16,1.1632,1.1639,1.1646,1.1684,1.1692,1.1709,1.1734,1.1735,1.1737,1.1748,1.1731,1.1742,1.1738,1.1739,1.1741,1.1736,1.1732,1.1787,1.1788,1.1788,0,0,1.1486,1.1505,1.1505,1.1522,1.1548,1.157,1.157,1.1602,1.1616,1.1624,1.1653,1.1662,1.1682,1.1699,1.171,1.1683,1.1705,1.1687,1.1662,1.1662,1.1658,1.1655,1.1646,1.1643,1.1685,1.1685,1.1685,0,1.1456,1.1471,1.1502,1.1508,1.1519,1.1555,1.1556,1.157,1.16,1.1607,1.1619,1.1647,1.1666,1.1672,1.1666,1.1673,1.1675,1.1683,1.1656,1.1653,1.1651,1.1643,1.1639,1.1683,1.1683,1.1683,1.1684,0,1.1433,1.1442,1.1439,1.1467,1.1478,1.1481,1.1513,1.1521,1.1541,1.1561,1.157,1.1594,1.1613,1.1616,1.1635,1.1626,1.1632,1.165,1.1672,1.1643,1.1637,1.1634,1.1679,1.168,1.1681,1.1682,0,0,1.137,1.1416,1.1415,1.1428,1.146,1.1468,1.1473,1.1493,1.1499,1.1518,1.1524,1.1541,1.1558,1.1571,1.1592,1.1592,1.1571,1.161,1.1612,1.1603,1.1563,1.155,1.1546,1.1585,1.1585,1.1584,1.1561,0,1.1342,1.1354,1.1382,1.1385,1.1395,1.1429,1.1434,1.1454,1.1474,1.1485,1.1507,1.1519,1.154,1.1548,1.155,1.1573,1.1563,1.1575,1.1591,1.1591,1.1584,1.1542,1.1528,1.1505,1.1558,1.1558,1.1558,0,1.131,1.1328,1.1332,1.1365,1.137,1.1373,1.1394,1.1404,1.1428,1.1443,1.1457,1.1481,1.1489,1.1509,1.152,1.1528,1.1536,1.1549,1.1548,1.1551,1.1573,1.1544,1.1498,1.1494,1.1554,1.1554,1.1554,0,1.1265,1.129,1.1296,1.1306,1.1344,1.1346,1.1362,1.1387,1.1397,1.1416,1.1423,1.1441,1.1452,1.1465,1.1494,1.1506,1.1503,1.1525,1.1515,1.1515,1.1513,1.1513,1.1468,1.1517,1.1518,1.1518,1.1518,0,1.1231,1.1232,1.1276,1.128,1.1283,1.1316,1.1318,1.1337,1.1359,1.1367,1.1397,1.1404,1.1441,1.1453,1.1475,1.1482,1.1486,1.1498,1.1504,1.1496,1.1494,1.1502,1.1505,1.1517,1.1517,1.1517,1.1517,0,1.1181,1.1211,1.122,1.1255,1.1264,1.1265,1.1295,1.13,1.1322,1.1332,1.1336,1.1371,1.1386,1.1416,1.1439,1.1454,1.1456,1.1466,1.1448,1.1451,1.1441,1.1442,1.14,1.1396,1.1447,1.1446,1.1446,0,1.1158,1.116,1.1196,1.1204,1.1219,1.1231,1.1242,1.1275,1.1285,1.1313,1.1315,1.1332,1.1348,1.1371,1.1398,1.1416,1.1427,1.1411,1.143,1.1422,1.1428,1.1428,1.1428,1.1407,1.1406,1.1406,1.1405,0,1.1114,1.1128,1.1143,1.1163,1.1175,1.1193,1.1212,1.1216,1.1254,1.1264,1.128,1.1292,1.1316,1.1334,1.1356,1.1372,1.1395,1.1399,1.1398,1.139,1.1379,1.1386,1.1437,1.14,1.14,1.1401,1.1401,1.1401,1.1077,1.1081,1.1107,1.1123,1.114,1.1158,1.1164,1.1187,1.1202,1.1224,1.1243,1.1257,1.1282,1.1315,1.133,1.1342,1.1353,1.1351,1.1351,1.135,1.1347,1.1377,1.1346,1.1346,1.1346,1.1347,1.1347,0,1.1035,1.1054,1.1068,1.1094,1.1106,1.1127,1.1149,1.1158,1.1171,1.1192,1.1207,1.1226,1.1243,1.1272,1.1292,1.1296,1.1307,1.13,1.13,1.1304,1.1335,1.1335,1.1291,1.1291,1.1291,1.1291,1.1291,1.1291,1.1015,1.1022,1.104,1.1057,1.1076,1.1091,1.1102,1.1118,1.1136,1.1156,1.117,1.1189,1.1214,1.1235,1.1252,1.126,1.1266,1.1256,1.1267,1.1296,1.1302,1.1307,1.1306,1.1257,1.1257,1.1235,1.1235,1.1235]}]]